contact:dominique.lefevre@mio.osupytheas.fr, maurice.libes@osupytheas.fr, didier.mallarino@osupytheas.fr
Project:EMSO http://www.emso-fr.org/EMSO-France
Depth: 2436.0 m
Title:EMSO Ligure Ouest : Data MII capteur CSTAR
DateTime,Latitude,Longitude,Instrument_Serial,Reference_Counts,Signal_Counts,Corrected_Signal_raw_counts,Calculated_Beam_c_inverse_meters,Internal_thermistor_counts
DateTime,Latitude,Longitude,Instrument_Serial,Reference_Counts,Signal_Counts,Corrected_Signal_raw_counts,Calculated_Beam_c_inverse_meters,Internal_thermistor_counts
2023-05-08T00:00:00,42.805,6.029,CST-1368DR,4304,4703,11602,01.188,552
2023-05-08T00:03:02,42.805,6.029,CST-1368DR,4304,4707,11611,01.185,552
2023-05-08T00:06:04,42.805,6.029,CST-1368DR,4304,4706,11608,01.186,552
2023-05-08T00:09:05,42.805,6.029,CST-1368DR,4304,4707,11612,01.185,552
2023-05-08T00:12:07,42.805,6.029,CST-1368DR,4304,4703,11602,01.188,552
2023-05-08T00:15:08,42.805,6.029,CST-1368DR,4304,4709,11615,01.184,551
2023-05-08T00:18:10,42.805,6.029,CST-1368DR,4304,4708,11614,01.184,552
2023-05-08T00:21:11,42.805,6.029,CST-1368DR,4304,4708,11614,01.184,551
2023-05-08T00:24:13,42.805,6.029,CST-1368DR,4304,4709,11615,01.184,552
2023-05-08T00:27:15,42.805,6.029,CST-1368DR,4304,4707,11610,01.186,552
2023-05-08T00:30:16,42.805,6.029,CST-1368DR,4304,4705,11606,01.187,552
2023-05-08T00:33:18,42.805,6.029,CST-1368DR,4304,4705,11606,01.187,551
2023-05-08T00:36:19,42.805,6.029,CST-1368DR,4304,4705,11606,01.187,551
2023-05-08T00:39:21,42.805,6.029,CST-1368DR,4304,4701,11596,01.191,551
2023-05-08T00:42:23,42.805,6.029,CST-1368DR,4304,4702,11598,01.190,551
2023-05-08T00:45:24,42.805,6.029,CST-1368DR,4304,4701,11596,01.191,552
2023-05-08T00:48:26,42.805,6.029,CST-1368DR,4304,4695,11580,01.196,552
2023-05-08T00:51:27,42.805,6.029,CST-1368DR,4304,4697,11585,01.194,552
2023-05-08T00:54:29,42.805,6.029,CST-1368DR,4304,4694,11578,01.197,552
2023-05-08T00:57:30,42.805,6.029,CST-1368DR,4304,4697,11586,01.194,552
2023-05-08T01:00:32,42.805,6.029,CST-1368DR,4304,4696,11584,01.195,551
2023-05-08T01:03:34,42.805,6.029,CST-1368DR,4304,4703,11602,01.188,552
2023-05-08T01:06:35,42.805,6.029,CST-1368DR,4304,4696,11584,01.195,551
2023-05-08T01:09:37,42.805,6.029,CST-1368DR,4304,4703,11601,01.189,552
2023-05-08T01:12:38,42.805,6.029,CST-1368DR,4304,4698,11588,01.193,552
2023-05-08T01:15:40,42.805,6.029,CST-1368DR,4304,4699,11590,01.193,552
2023-05-08T01:18:41,42.805,6.029,CST-1368DR,4304,4698,11588,01.193,552
2023-05-08T01:21:43,42.805,6.029,CST-1368DR,4304,4700,11593,01.192,552
2023-05-08T01:24:45,42.805,6.029,CST-1368DR,4304,4701,11595,01.191,552
2023-05-08T01:27:46,42.805,6.029,CST-1368DR,4304,4698,11589,01.193,552
2023-05-08T01:30:48,42.805,6.029,CST-1368DR,4304,4703,11601,01.189,552
2023-05-08T01:33:49,42.805,6.029,CST-1368DR,4304,4702,11598,01.190,552
2023-05-08T01:36:51,42.805,6.029,CST-1368DR,4304,4697,11587,01.194,552
2023-05-08T01:39:53,42.805,6.029,CST-1368DR,4304,4697,11587,01.194,551
2023-05-08T01:42:54,42.805,6.029,CST-1368DR,4304,4696,11583,01.195,552
2023-05-08T01:45:56,42.805,6.029,CST-1368DR,4304,4694,11580,01.196,551
2023-05-08T01:48:57,42.805,6.029,CST-1368DR,4304,4696,11585,01.194,552
2023-05-08T01:51:59,42.805,6.029,CST-1368DR,4304,4695,11582,01.195,552
2023-05-08T01:55:00,42.805,6.029,CST-1368DR,4304,4697,11587,01.194,552
2023-05-08T01:58:02,42.805,6.029,CST-1368DR,4304,4698,11588,01.193,552
2023-05-08T02:01:04,42.805,6.029,CST-1368DR,4304,4693,11577,01.197,551
2023-05-08T02:04:05,42.805,6.029,CST-1368DR,4304,4695,11580,01.196,551
2023-05-08T02:07:07,42.805,6.029,CST-1368DR,4304,4696,11583,01.195,552
2023-05-08T02:10:08,42.805,6.029,CST-1368DR,4304,4697,11586,01.194,552
2023-05-08T02:13:10,42.805,6.029,CST-1368DR,4304,4696,11584,01.195,552
2023-05-08T02:16:11,42.805,6.029,CST-1368DR,4304,4696,11584,01.195,552
2023-05-08T02:19:13,42.805,6.029,CST-1368DR,4304,4695,11581,01.196,552
2023-05-08T02:22:15,42.805,6.029,CST-1368DR,4304,4695,11581,01.196,551
2023-05-08T02:25:16,42.805,6.029,CST-1368DR,4304,4696,11583,01.195,552
2023-05-08T02:28:18,42.805,6.029,CST-1368DR,4304,4691,11572,01.199,552
2023-05-08T02:31:19,42.805,6.029,CST-1368DR,4304,4695,11582,01.195,552
2023-05-08T02:34:21,42.805,6.029,CST-1368DR,4304,4697,11586,01.194,552
2023-05-08T02:37:23,42.805,6.029,CST-1368DR,4304,4697,11585,01.194,552
2023-05-08T02:40:24,42.805,6.029,CST-1368DR,4304,4693,11577,01.197,552
2023-05-08T02:43:26,42.805,6.029,CST-1368DR,4304,4697,11586,01.194,552
2023-05-08T02:46:27,42.805,6.029,CST-1368DR,4304,4692,11574,01.198,552
2023-05-08T02:49:29,42.805,6.029,CST-1368DR,4304,4697,11585,01.194,551
2023-05-08T02:52:30,42.805,6.029,CST-1368DR,4304,4694,11579,01.196,552
2023-05-08T02:55:32,42.805,6.029,CST-1368DR,4304,4693,11576,01.197,552
2023-05-08T02:58:34,42.805,6.029,CST-1368DR,4304,4700,11593,01.192,551
2023-05-08T03:01:35,42.805,6.029,CST-1368DR,4304,4696,11585,01.194,552
2023-05-08T03:04:37,42.805,6.029,CST-1368DR,4304,4693,11576,01.197,552
2023-05-08T03:07:38,42.805,6.029,CST-1368DR,4304,4695,11582,01.195,552
2023-05-08T03:10:40,42.805,6.029,CST-1368DR,4304,4695,11580,01.196,552
2023-05-08T03:13:41,42.805,6.029,CST-1368DR,4304,4695,11582,01.195,552
2023-05-08T03:16:43,42.805,6.029,CST-1368DR,4304,4695,11582,01.195,552
2023-05-08T03:19:45,42.805,6.029,CST-1368DR,4304,4697,11585,01.194,552
2023-05-08T03:22:46,42.805,6.029,CST-1368DR,4304,4698,11589,01.193,552
2023-05-08T03:25:48,42.805,6.029,CST-1368DR,4304,4697,11587,01.194,552
2023-05-08T03:28:49,42.805,6.029,CST-1368DR,4304,4698,11588,01.193,552
2023-05-08T03:31:51,42.805,6.029,CST-1368DR,4304,4698,11589,01.193,552
2023-05-08T03:34:53,42.805,6.029,CST-1368DR,4304,4696,11583,01.195,551
2023-05-08T03:37:54,42.805,6.029,CST-1368DR,4304,4697,11585,01.194,552
2023-05-08T03:40:56,42.805,6.029,CST-1368DR,4304,4697,11585,01.194,552
2023-05-08T03:43:57,42.805,6.029,CST-1368DR,4304,4695,11582,01.195,552
2023-05-08T03:46:59,42.805,6.029,CST-1368DR,4304,4697,11586,01.194,552
2023-05-08T03:50:00,42.805,6.029,CST-1368DR,4304,4696,11585,01.194,552
2023-05-08T03:53:02,42.805,6.029,CST-1368DR,4304,4696,11584,01.195,552
2023-05-08T03:56:04,42.805,6.029,CST-1368DR,4304,4698,11589,01.193,552
2023-05-08T03:59:05,42.805,6.029,CST-1368DR,4304,4697,11585,01.194,551
2023-05-08T04:02:07,42.805,6.029,CST-1368DR,4304,4697,11587,01.194,551
2023-05-08T04:05:08,42.805,6.029,CST-1368DR,4304,4695,11582,01.195,552
2023-05-08T04:08:10,42.805,6.029,CST-1368DR,4304,4696,11583,01.195,551
2023-05-08T04:11:12,42.805,6.029,CST-1368DR,4304,4698,11590,01.193,552
2023-05-08T04:14:13,42.805,6.029,CST-1368DR,4304,4698,11588,01.193,551
2023-05-08T04:17:15,42.805,6.029,CST-1368DR,4304,4693,11577,01.197,552
2023-05-08T04:20:16,42.805,6.029,CST-1368DR,4304,4697,11587,01.194,552
2023-05-08T04:23:18,42.805,6.029,CST-1368DR,4304,4696,11584,01.195,552
2023-05-08T04:26:19,42.805,6.029,CST-1368DR,4304,4695,11582,01.195,552
2023-05-08T04:29:21,42.805,6.029,CST-1368DR,4304,4703,11600,01.189,552
2023-05-08T04:32:23,42.805,6.029,CST-1368DR,4304,4698,11589,01.193,551
2023-05-08T04:35:24,42.805,6.029,CST-1368DR,4304,4698,11588,01.193,552
2023-05-08T04:38:26,42.805,6.029,CST-1368DR,4304,4700,11594,01.191,552
2023-05-08T04:41:27,42.805,6.029,CST-1368DR,4304,4704,11605,01.187,552
2023-05-08T04:44:29,42.805,6.029,CST-1368DR,4304,4696,11585,01.194,552
2023-05-08T04:47:30,42.805,6.029,CST-1368DR,4304,4699,11592,01.192,552
2023-05-08T04:50:32,42.805,6.029,CST-1368DR,4304,4700,11594,01.191,551
2023-05-08T04:53:34,42.805,6.029,CST-1368DR,4304,4703,11601,01.189,552
2023-05-08T04:56:35,42.805,6.029,CST-1368DR,4304,4695,11582,01.195,552
2023-05-08T04:59:37,42.805,6.029,CST-1368DR,4304,4698,11588,01.193,552
2023-05-08T05:02:38,42.805,6.029,CST-1368DR,4304,4697,11585,01.194,551
2023-05-08T05:05:40,42.805,6.029,CST-1368DR,4304,4699,11592,01.192,552
2023-05-08T05:08:41,42.805,6.029,CST-1368DR,4304,4697,11585,01.194,552
2023-05-08T05:11:43,42.805,6.029,CST-1368DR,4304,4698,11588,01.193,552
2023-05-08T05:14:45,42.805,6.029,CST-1368DR,4304,4700,11594,01.191,552
2023-05-08T05:17:46,42.805,6.029,CST-1368DR,4304,4697,11585,01.194,552
2023-05-08T05:20:48,42.805,6.029,CST-1368DR,4304,4701,11596,01.191,552
2023-05-08T05:23:49,42.805,6.029,CST-1368DR,4304,4698,11588,01.193,552
2023-05-08T05:26:51,42.805,6.029,CST-1368DR,4304,4700,11595,01.191,552
2023-05-08T05:29:53,42.805,6.029,CST-1368DR,4304,4699,11592,01.192,552
2023-05-08T05:32:54,42.805,6.029,CST-1368DR,4304,4700,11595,01.191,552
2023-05-08T05:35:56,42.805,6.029,CST-1368DR,4304,4700,11594,01.191,551
2023-05-08T05:38:57,42.805,6.029,CST-1368DR,4304,4696,11583,01.195,552
2023-05-08T05:41:59,42.805,6.029,CST-1368DR,4304,4698,11588,01.193,552
2023-05-08T05:45:00,42.805,6.029,CST-1368DR,4304,4700,11593,01.192,551
2023-05-08T05:48:02,42.805,6.029,CST-1368DR,4304,4703,11602,01.188,552
2023-05-08T05:51:04,42.805,6.029,CST-1368DR,4304,4695,11582,01.195,551
2023-05-08T05:54:05,42.805,6.029,CST-1368DR,4304,4702,11598,01.190,552
2023-05-08T05:57:07,42.805,6.029,CST-1368DR,4304,4698,11588,01.193,552
2023-05-08T06:00:08,42.805,6.029,CST-1368DR,4304,4698,11588,01.193,552
2023-05-08T06:03:10,42.805,6.029,CST-1368DR,4304,4699,11592,01.192,552
2023-05-08T06:06:11,42.805,6.029,CST-1368DR,4304,4702,11600,01.189,552
2023-05-08T06:09:13,42.805,6.029,CST-1368DR,4304,4700,11594,01.191,552
2023-05-08T06:12:15,42.805,6.029,CST-1368DR,4304,4702,11598,01.190,552
2023-05-08T06:15:16,42.805,6.029,CST-1368DR,4304,4695,11582,01.195,552
2023-05-08T06:18:18,42.805,6.029,CST-1368DR,4304,4699,11590,01.193,552
2023-05-08T06:21:19,42.805,6.029,CST-1368DR,4304,4698,11588,01.193,552
2023-05-08T06:24:21,42.805,6.029,CST-1368DR,4304,4698,11590,01.193,552
2023-05-08T06:27:23,42.805,6.029,CST-1368DR,4304,4703,11602,01.188,552
2023-05-08T06:30:24,42.805,6.029,CST-1368DR,4304,4702,11598,01.190,552
2023-05-08T06:33:26,42.805,6.029,CST-1368DR,4304,4703,11600,01.189,552
2023-05-08T06:36:27,42.805,6.029,CST-1368DR,4304,4701,11595,01.191,552
2023-05-08T06:39:29,42.805,6.029,CST-1368DR,4304,4699,11590,01.193,552
2023-05-08T06:42:30,42.805,6.029,CST-1368DR,4304,4699,11592,01.192,552
2023-05-08T06:45:32,42.805,6.029,CST-1368DR,4304,4703,11601,01.189,552
2023-05-08T06:48:34,42.805,6.029,CST-1368DR,4304,4701,11595,01.191,552
2023-05-08T06:51:35,42.805,6.029,CST-1368DR,4304,4702,11598,01.190,551
2023-05-08T06:54:37,42.805,6.029,CST-1368DR,4304,4702,11600,01.189,552
2023-05-08T06:57:38,42.805,6.029,CST-1368DR,4304,4705,11606,01.187,552
2023-05-08T07:00:40,42.805,6.029,CST-1368DR,4304,4706,11608,01.186,552
2023-05-08T07:03:42,42.805,6.029,CST-1368DR,4304,4699,11591,01.192,552
2023-05-08T07:06:43,42.805,6.029,CST-1368DR,4304,4704,11603,01.188,552
2023-05-08T07:09:45,42.805,6.029,CST-1368DR,4304,4703,11601,01.189,552
2023-05-08T07:12:46,42.805,6.029,CST-1368DR,4304,4704,11603,01.188,551
2023-05-08T07:15:48,42.805,6.029,CST-1368DR,4304,4701,11595,01.191,552
2023-05-08T07:18:49,42.805,6.029,CST-1368DR,4304,4704,11603,01.188,551
2023-05-08T07:21:51,42.805,6.029,CST-1368DR,4304,4701,11595,01.191,552
2023-05-08T07:24:53,42.805,6.029,CST-1368DR,4304,4702,11598,01.190,552
2023-05-08T07:27:54,42.805,6.029,CST-1368DR,4304,4701,11597,01.190,551
2023-05-08T07:30:56,42.805,6.029,CST-1368DR,4304,4703,11601,01.189,552
2023-05-08T07:33:57,42.805,6.029,CST-1368DR,4304,4703,11600,01.189,552
2023-05-08T07:36:59,42.805,6.029,CST-1368DR,4304,4700,11594,01.191,551
2023-05-08T07:40:00,42.805,6.029,CST-1368DR,4304,4700,11594,01.191,552
2023-05-08T07:43:02,42.805,6.029,CST-1368DR,4304,4704,11603,01.188,552
2023-05-08T07:46:04,42.805,6.029,CST-1368DR,4304,4700,11595,01.191,552
2023-05-08T07:49:05,42.805,6.029,CST-1368DR,4304,4703,11601,01.189,552
2023-05-08T07:52:07,42.805,6.029,CST-1368DR,4304,4712,11622,01.182,552
2023-05-08T07:55:08,42.805,6.029,CST-1368DR,4304,4708,11613,01.185,552
2023-05-08T07:58:10,42.805,6.029,CST-1368DR,4304,4705,11606,01.187,551
2023-05-08T08:01:11,42.805,6.029,CST-1368DR,4304,4697,11586,01.194,552
2023-05-08T08:04:13,42.805,6.029,CST-1368DR,4304,4705,11606,01.187,552
2023-05-08T08:07:15,42.805,6.029,CST-1368DR,4304,4707,11611,01.185,552
2023-05-08T08:10:16,42.805,6.029,CST-1368DR,4304,4702,11598,01.190,552
2023-05-08T08:13:18,42.805,6.029,CST-1368DR,4304,4705,11605,01.187,552
2023-05-08T08:16:19,42.805,6.029,CST-1368DR,4304,4703,11601,01.189,552
2023-05-08T08:19:21,42.805,6.029,CST-1368DR,4304,4703,11602,01.188,552
2023-05-08T08:22:23,42.805,6.029,CST-1368DR,4304,4702,11600,01.189,552
2023-05-08T08:25:24,42.805,6.029,CST-1368DR,4304,4699,11592,01.192,552
2023-05-08T08:28:26,42.805,6.029,CST-1368DR,4304,4698,11588,01.193,551
2023-05-08T08:31:29,42.805,6.029,CST-1368DR,4303,4699,11594,01.191,552
2023-05-08T08:34:30,42.805,6.029,CST-1368DR,4304,4697,11586,01.194,551
2023-05-08T08:37:32,42.805,6.029,CST-1368DR,4303,4699,11595,01.191,551
2023-05-08T08:40:33,42.805,6.029,CST-1368DR,4304,4700,11595,01.191,552
2023-05-08T08:43:35,42.805,6.029,CST-1368DR,4304,4699,11592,01.192,551
2023-05-08T08:46:36,42.805,6.029,CST-1368DR,4304,4700,11593,01.192,552
2023-05-08T08:49:38,42.805,6.029,CST-1368DR,4303,4699,11594,01.191,551
2023-05-08T08:52:40,42.805,6.029,CST-1368DR,4304,4700,11593,01.192,552
2023-05-08T08:55:41,42.805,6.029,CST-1368DR,4304,4700,11593,01.192,552
2023-05-08T08:58:43,42.805,6.029,CST-1368DR,4304,4699,11592,01.192,552
2023-05-08T09:01:44,42.805,6.029,CST-1368DR,4304,4700,11594,01.191,552
2023-05-08T09:04:46,42.805,6.029,CST-1368DR,4304,4701,11597,01.190,551
2023-05-08T09:07:47,42.805,6.029,CST-1368DR,4304,4700,11594,01.191,551
2023-05-08T09:10:49,42.805,6.029,CST-1368DR,4304,4701,11595,01.191,551
2023-05-08T09:13:51,42.805,6.029,CST-1368DR,4304,4700,11595,01.191,551
2023-05-08T09:16:52,42.805,6.029,CST-1368DR,4304,4701,11595,01.191,552
2023-05-08T09:19:54,42.805,6.029,CST-1368DR,4304,4701,11596,01.191,552
2023-05-08T09:22:55,42.805,6.029,CST-1368DR,4304,4702,11598,01.190,552
2023-05-08T09:25:57,42.805,6.029,CST-1368DR,4304,4702,11598,01.190,551
2023-05-08T09:28:59,42.805,6.029,CST-1368DR,4304,4702,11600,01.189,551
2023-05-08T09:32:00,42.805,6.029,CST-1368DR,4304,4700,11594,01.191,552
2023-05-08T09:35:02,42.805,6.029,CST-1368DR,4304,4714,11628,01.180,552
2023-05-08T09:38:03,42.805,6.029,CST-1368DR,4304,4709,11615,01.184,552
2023-05-08T09:41:05,42.805,6.029,CST-1368DR,4304,4702,11598,01.190,551
2023-05-08T09:44:06,42.805,6.029,CST-1368DR,4304,4699,11592,01.192,552
2023-05-08T09:47:08,42.805,6.029,CST-1368DR,4304,4701,11596,01.191,552
2023-05-08T09:50:10,42.805,6.029,CST-1368DR,4304,4700,11595,01.191,552
2023-05-08T09:53:11,42.805,6.029,CST-1368DR,4304,4703,11602,01.188,552
2023-05-08T09:56:13,42.805,6.029,CST-1368DR,4304,4704,11603,01.188,551
2023-05-08T09:59:14,42.805,6.029,CST-1368DR,4304,4700,11594,01.191,552
2023-05-08T10:02:16,42.805,6.029,CST-1368DR,4304,4705,11605,01.187,551
2023-05-08T10:05:17,42.805,6.029,CST-1368DR,4303,4702,11600,01.189,552
2023-05-08T10:08:19,42.805,6.029,CST-1368DR,4303,4701,11599,01.190,552
2023-05-08T10:11:21,42.805,6.029,CST-1368DR,4303,4693,11579,01.196,552
2023-05-08T10:14:22,42.805,6.029,CST-1368DR,4304,4701,11596,01.191,551
2023-05-08T10:17:24,42.805,6.029,CST-1368DR,4304,4703,11601,01.189,552
2023-05-08T10:20:25,42.805,6.029,CST-1368DR,4304,4706,11608,01.186,552
2023-05-08T10:23:27,42.805,6.029,CST-1368DR,4304,4704,11605,01.187,552
2023-05-08T10:26:29,42.805,6.029,CST-1368DR,4304,4704,11605,01.187,552
2023-05-08T10:29:30,42.805,6.029,CST-1368DR,4304,4702,11598,01.190,552
2023-05-08T10:32:32,42.805,6.029,CST-1368DR,4304,4701,11597,01.190,552
2023-05-08T10:35:33,42.805,6.029,CST-1368DR,4304,4708,11614,01.184,552
2023-05-08T10:38:35,42.805,6.029,CST-1368DR,4304,4705,11605,01.187,552
2023-05-08T10:41:36,42.805,6.029,CST-1368DR,4304,4706,11609,01.186,552
2023-05-08T10:44:38,42.805,6.029,CST-1368DR,4304,4704,11605,01.187,551
2023-05-08T10:47:40,42.805,6.029,CST-1368DR,4304,4707,11611,01.185,552
2023-05-08T10:50:41,42.805,6.029,CST-1368DR,4303,4705,11609,01.186,552
2023-05-08T10:53:43,42.805,6.029,CST-1368DR,4304,4708,11614,01.184,552
2023-05-08T10:56:44,42.805,6.029,CST-1368DR,4304,4705,11606,01.187,552
2023-05-08T10:59:46,42.805,6.029,CST-1368DR,4304,4706,11609,01.186,552
2023-05-08T11:02:47,42.805,6.029,CST-1368DR,4304,4709,11615,01.184,551
2023-05-08T11:05:49,42.805,6.029,CST-1368DR,4304,4707,11610,01.186,552
2023-05-08T11:08:51,42.805,6.029,CST-1368DR,4304,4716,11634,01.177,552
2023-05-08T11:11:52,42.805,6.029,CST-1368DR,4304,4705,11606,01.187,552
2023-05-08T11:14:54,42.805,6.029,CST-1368DR,4304,4707,11612,01.185,552
2023-05-08T11:17:55,42.805,6.029,CST-1368DR,4304,4708,11613,01.185,552
2023-05-08T11:20:57,42.805,6.029,CST-1368DR,4304,4705,11607,01.187,552
2023-05-08T11:23:59,42.805,6.029,CST-1368DR,4304,4708,11614,01.184,552
2023-05-08T11:27:00,42.805,6.029,CST-1368DR,4304,4707,11612,01.185,552
2023-05-08T11:30:02,42.805,6.029,CST-1368DR,4304,4705,11607,01.187,552
2023-05-08T11:33:03,42.805,6.029,CST-1368DR,4304,4706,11609,01.186,551
2023-05-08T11:36:05,42.805,6.029,CST-1368DR,4304,4704,11603,01.188,551
2023-05-08T11:39:06,42.805,6.029,CST-1368DR,4304,4705,11605,01.187,552
2023-05-08T11:42:08,42.805,6.029,CST-1368DR,4304,4706,11608,01.186,551
2023-05-08T11:45:10,42.805,6.029,CST-1368DR,4303,4705,11609,01.186,552
2023-05-08T11:48:11,42.805,6.029,CST-1368DR,4304,4705,11606,01.187,552
2023-05-08T11:51:13,42.805,6.029,CST-1368DR,4304,4704,11603,01.188,552
2023-05-08T11:54:14,42.805,6.029,CST-1368DR,4304,4703,11602,01.188,552
2023-05-08T11:57:16,42.805,6.029,CST-1368DR,4304,4706,11609,01.186,551
2023-05-08T12:00:17,42.805,6.029,CST-1368DR,4304,4706,11608,01.186,552
2023-05-08T12:03:19,42.805,6.029,CST-1368DR,4304,4715,11630,01.179,552
2023-05-08T12:06:21,42.805,6.029,CST-1368DR,4304,4713,11625,01.181,552
2023-05-08T12:09:22,42.805,6.029,CST-1368DR,4304,4706,11608,01.186,552
2023-05-08T12:12:24,42.805,6.029,CST-1368DR,4304,4706,11609,01.186,552
2023-05-08T12:15:25,42.805,6.029,CST-1368DR,4304,4708,11614,01.184,552
2023-05-08T12:18:27,42.805,6.029,CST-1368DR,4304,4708,11614,01.184,552
2023-05-08T12:21:29,42.805,6.029,CST-1368DR,4304,4703,11602,01.188,552
2023-05-08T12:24:30,42.805,6.029,CST-1368DR,4304,4706,11609,01.186,552
2023-05-08T12:27:32,42.805,6.029,CST-1368DR,4304,4708,11614,01.184,552
2023-05-08T12:30:33,42.805,6.029,CST-1368DR,4304,4709,11616,01.184,552
2023-05-08T12:33:35,42.805,6.029,CST-1368DR,4303,4704,11607,01.187,552
2023-05-08T12:36:36,42.805,6.029,CST-1368DR,4303,4706,11611,01.185,552
2023-05-08T12:39:38,42.805,6.029,CST-1368DR,4304,4709,11616,01.184,552
2023-05-08T12:42:39,42.805,6.029,CST-1368DR,4304,4744,11702,01.154,552
2023-05-08T12:45:41,42.805,6.029,CST-1368DR,4304,4745,11706,01.153,552
2023-05-08T12:48:42,42.805,6.029,CST-1368DR,4303,4664,11507,01.221,552
2023-05-08T12:51:44,42.805,6.029,CST-1368DR,4304,4747,11709,01.152,552
2023-05-08T12:54:46,42.805,6.029,CST-1368DR,4304,4745,11706,01.153,552
2023-05-08T12:57:47,42.805,6.029,CST-1368DR,4304,4746,11707,01.152,552
2023-05-08T13:00:49,42.805,6.029,CST-1368DR,4304,4747,11709,01.152,552
2023-05-08T13:03:50,42.805,6.029,CST-1368DR,4304,4746,11707,01.152,552
2023-05-08T13:06:52,42.805,6.029,CST-1368DR,4304,4747,11709,01.152,552
2023-05-08T13:09:53,42.805,6.029,CST-1368DR,4304,4746,11707,01.152,552
2023-05-08T13:12:55,42.805,6.029,CST-1368DR,4304,4746,11706,01.153,552
2023-05-08T13:15:57,42.805,6.029,CST-1368DR,4304,4747,11709,01.152,552
2023-05-08T13:18:58,42.805,6.029,CST-1368DR,4304,4747,11709,01.152,552
2023-05-08T13:22:00,42.805,6.029,CST-1368DR,4304,4745,11706,01.153,552
2023-05-08T13:25:01,42.805,6.029,CST-1368DR,4304,4745,11704,01.153,552
2023-05-08T13:28:03,42.805,6.029,CST-1368DR,4304,4748,11711,01.151,552
2023-05-08T13:31:05,42.805,6.029,CST-1368DR,4304,4746,11708,01.152,552
2023-05-08T13:34:06,42.805,6.029,CST-1368DR,4304,4746,11707,01.152,552
2023-05-08T13:37:08,42.805,6.029,CST-1368DR,4304,4746,11706,01.153,552
2023-05-08T13:40:09,42.805,6.029,CST-1368DR,4304,4749,11716,01.149,552
2023-05-08T13:43:11,42.805,6.029,CST-1368DR,4304,4746,11707,01.152,551
2023-05-08T13:46:12,42.805,6.029,CST-1368DR,4304,4747,11710,01.151,552
2023-05-08T13:49:14,42.805,6.029,CST-1368DR,4304,4750,11717,01.149,551
2023-05-08T13:52:16,42.805,6.029,CST-1368DR,4304,4747,11711,01.151,552
2023-05-08T13:55:17,42.805,6.029,CST-1368DR,4304,4747,11711,01.151,552
2023-05-08T13:58:19,42.805,6.029,CST-1368DR,4304,4748,11713,01.150,552
2023-05-08T14:01:20,42.805,6.029,CST-1368DR,4304,4747,11711,01.151,551
2023-05-08T14:04:22,42.805,6.029,CST-1368DR,4304,4749,11714,01.150,552
2023-05-08T14:07:23,42.805,6.029,CST-1368DR,4304,4746,11708,01.152,552
2023-05-08T14:10:25,42.805,6.029,CST-1368DR,4304,4747,11709,01.152,552
2023-05-08T14:13:27,42.805,6.029,CST-1368DR,4304,4747,11711,01.151,552
2023-05-08T14:16:28,42.805,6.029,CST-1368DR,4304,4748,11711,01.151,551
2023-05-08T14:19:30,42.805,6.029,CST-1368DR,4304,4738,11688,01.159,552
2023-05-08T14:22:31,42.805,6.029,CST-1368DR,4304,4746,11706,01.153,552
2023-05-08T14:25:33,42.805,6.029,CST-1368DR,4304,4737,11685,01.160,552
2023-05-08T14:28:34,42.805,6.029,CST-1368DR,4304,4731,11669,01.165,551
2023-05-08T14:31:36,42.805,6.029,CST-1368DR,4304,4734,11677,01.163,551
2023-05-08T14:34:38,42.805,6.029,CST-1368DR,4304,4721,11645,01.174,552
2023-05-08T14:37:39,42.805,6.029,CST-1368DR,4304,4717,11635,01.177,552
2023-05-08T14:40:41,42.805,6.029,CST-1368DR,4304,4722,11648,01.173,552
2023-05-08T14:43:42,42.805,6.029,CST-1368DR,4303,4711,11624,01.181,552
2023-05-08T14:46:44,42.805,6.029,CST-1368DR,4303,4711,11624,01.181,552
2023-05-08T14:49:46,42.805,6.029,CST-1368DR,4304,4716,11633,01.178,552
2023-05-08T14:52:47,42.805,6.029,CST-1368DR,4304,4715,11631,01.178,551
2023-05-08T14:55:49,42.805,6.029,CST-1368DR,4303,4710,11622,01.182,552
2023-05-08T14:58:50,42.805,6.029,CST-1368DR,4304,4719,11640,01.175,552
2023-05-08T15:01:52,42.805,6.029,CST-1368DR,4304,4723,11651,01.172,552
2023-05-08T15:04:53,42.805,6.029,CST-1368DR,4303,4711,11624,01.181,552
2023-05-08T15:07:55,42.805,6.029,CST-1368DR,4303,4717,11637,01.176,552
2023-05-08T15:10:57,42.805,6.029,CST-1368DR,4303,4709,11619,01.183,552
2023-05-08T15:13:58,42.805,6.029,CST-1368DR,4303,4721,11647,01.173,552
2023-05-08T15:17:00,42.805,6.029,CST-1368DR,4303,4719,11644,01.174,552
2023-05-08T15:20:01,42.805,6.029,CST-1368DR,4303,4715,11634,01.177,552
2023-05-08T15:23:03,42.805,6.029,CST-1368DR,4303,4706,11612,01.185,551
2023-05-08T15:26:04,42.805,6.029,CST-1368DR,4303,4713,11629,01.179,552
2023-05-08T15:29:06,42.805,6.029,CST-1368DR,4303,4713,11628,01.180,551
2023-05-08T15:32:08,42.805,6.029,CST-1368DR,4303,4709,11618,01.183,551
2023-05-08T15:35:09,42.805,6.029,CST-1368DR,4303,4710,11620,01.182,551
2023-05-08T15:38:11,42.805,6.029,CST-1368DR,4303,4712,11626,01.180,551
2023-05-08T15:41:12,42.805,6.029,CST-1368DR,4303,4704,11605,01.187,551
2023-05-08T15:44:14,42.805,6.029,CST-1368DR,4303,4710,11621,01.182,552
2023-05-08T15:47:16,42.805,6.029,CST-1368DR,4303,4714,11630,01.179,552
2023-05-08T15:50:17,42.805,6.029,CST-1368DR,4303,4707,11615,01.184,551
2023-05-08T15:53:19,42.805,6.029,CST-1368DR,4303,4714,11631,01.178,552
2023-05-08T15:56:20,42.805,6.029,CST-1368DR,4303,4708,11617,01.183,552
2023-05-08T15:59:22,42.805,6.029,CST-1368DR,4303,4710,11620,01.182,552
2023-05-08T16:02:23,42.805,6.029,CST-1368DR,4303,4711,11623,01.181,552
2023-05-08T16:05:25,42.805,6.029,CST-1368DR,4303,4706,11611,01.185,552
2023-05-08T16:08:27,42.805,6.029,CST-1368DR,4303,4715,11634,01.177,552
2023-05-08T16:11:28,42.805,6.029,CST-1368DR,4303,4707,11614,01.184,551
2023-05-08T16:14:30,42.805,6.029,CST-1368DR,4303,4713,11629,01.179,552
2023-05-08T16:17:31,42.805,6.029,CST-1368DR,4303,4704,11606,01.187,551
2023-05-08T16:20:33,42.805,6.029,CST-1368DR,4303,4702,11601,01.189,552
2023-05-08T16:23:34,42.805,6.029,CST-1368DR,4303,4712,11627,01.180,552
2023-05-08T16:26:36,42.805,6.029,CST-1368DR,4303,4714,11630,01.179,552
2023-05-08T16:29:38,42.805,6.029,CST-1368DR,4303,4708,11616,01.184,552
2023-05-08T16:32:39,42.805,6.029,CST-1368DR,4303,4704,11605,01.187,552
2023-05-08T16:35:41,42.805,6.029,CST-1368DR,4303,4710,11621,01.182,552